Home > Weather > Birmingham > Past weeks

Flag for United Kingdom Past Weather in Birmingham, England, United Kingdom — Yesterday and Last 2 Weeks

Now
55 °F

Passing clouds.


Feels Like: 54 °F
Forecast: 52 / 60 °F
Wind: 7 mph from Southwest

Location: Birmingham / Airport

Current Time: Jun 30, 2016 at 2:51:13 AM

Latest Report: Jun 30, 2016 at 2:20 AM


Visibility: N/A

Pressure: 29.71 "Hg

Humidity: 94%

Dew Point: 54 °F

Location of BirminghamLocation

Past Weather in Birmingham — Graph

°F

Birmingham Temperature Yesterday

Maximum temperature yesterday: 61 °F (at 6:20 PM)
Minimum temperature yesterday: 50 °F (at 2:50 AM)
Average temperature yesterday: 56 °F

High & Low Weather Summary for the Past Weeks

 TemperatureHumidityPressure
High70 °F (Jun 20, 3:20 PM)100% (Jun 15, 1:20 AM)30.21 "Hg (Jun 15, 1:20 AM)
Low48 °F (Jun 28, 2:50 AM)40% (Jun 27, 6:20 PM)29.33 "Hg (Jun 15, 2:50 AM)
Average60 °F80%29.91 "Hg
* Reported Jun 15 1:20 AM — Jun 30 1:20 AM, Birmingham, Weather by CustomWeather, © 2016

Note: Actual official high and low records may vary slightly from our data, if they occured in-between our weather recording intervals... More about our weather records

Advertising

Birmingham Weather History for the Previous 24 Hours

Scroll right to see more
 ConditionsComfort  
Time TempWeatherWind HumidityBarometerVisibility
1:20 AM
Thu, Jun 30
55 °FPassing clouds.6 mph94%29.71 "HgN/A
12:20 AM55 °FPassing clouds.6 mph100%29.71 "HgN/A
11:50 PM
Wed, Jun 29
57 °FPassing clouds.7 mph94%29.71 "HgN/A
11:20 PM57 °FPassing clouds.7 mph94%29.71 "HgN/A
10:50 PM57 °FPassing clouds.6 mph94%29.68 "HgN/A
10:20 PM59 °FScattered clouds.6 mph88%29.68 "HgN/A
9:50 PM59 °FScattered clouds.6 mph88%29.68 "HgN/A
9:20 PM59 °FPassing clouds.7 mph88%29.65 "HgN/A
8:50 PM59 °FScattered clouds.7 mph88%29.65 "HgN/A
8:20 PM59 °FScattered clouds.8 mph94%29.65 "HgN/A
7:50 PM61 °FScattered showers. Broken clouds.7 mph88%29.62 "HgN/A
7:20 PM59 °FScattered clouds.9 mph94%29.62 "HgN/A
6:50 PM61 °FScattered clouds.9 mph88%29.62 "HgN/A
6:20 PM61 °FScattered clouds.12 mph88%29.62 "HgN/A
5:50 PM59 °FScattered showers. Scattered clouds.10 mph94%29.62 "HgN/A
5:20 PM59 °FLight rain. Broken clouds.13 mph94%29.62 "Hg4 mi
4:50 PM59 °FLight rain. Broken clouds.12 mph94%29.62 "Hg4 mi
4:20 PM59 °FMore clouds than sun.9 mph94%29.62 "Hg5 mi
3:50 PM59 °FLight rain. Broken clouds.10 mph94%29.62 "HgN/A
3:20 PM59 °FScattered showers. Broken clouds.12 mph94%29.62 "HgN/A
2:50 PM59 °FBroken clouds.10 mph94%29.62 "HgN/A
2:20 PM57 °FLight rain. Broken clouds.14 mph100%29.62 "HgN/A
1:50 PM57 °FLight rain. Mostly cloudy.14 mph100%29.62 "Hg4 mi
1:20 PM57 °FLight rain. Partly sunny.14 mph94%29.62 "HgN/A
12:50 PM57 °FLight rain. Partly sunny.14 mph94%29.62 "HgN/A
12:20 PM55 °FLight rain. Partly sunny.13 mph100%29.65 "HgN/A
11:50 AM55 °FLight rain. Partly sunny.13 mph94%29.65 "HgN/A
11:20 AM55 °FPartly sunny.10 mph94%29.65 "HgN/A
10:50 AM55 °FLight rain. Broken clouds.13 mph94%29.68 "HgN/A
10:20 AM55 °FPartly sunny.13 mph94%29.68 "Hg5 mi
9:20 AM55 °FLight rain. Broken clouds.8 mph94%29.74 "Hg4 mi
8:50 AM55 °FSunny.9 mph88%29.74 "Hg10 mi
8:20 AM54 °FSunny.7 mph94%29.74 "Hg10 mi
7:50 AM54 °FSunny.7 mph88%29.77 "Hg10 mi
7:20 AM54 °FPassing clouds.5 mph88%29.77 "HgN/A
6:50 AM52 °FPassing clouds.6 mph94%29.77 "HgN/A
6:20 AM52 °FPassing clouds.7 mph94%29.77 "HgN/A
5:50 AM52 °FPassing clouds.7 mph94%29.77 "HgN/A
5:20 AM50 °FPassing clouds.8 mph100%29.77 "HgN/A
4:50 AM50 °FPassing clouds.7 mph100%29.77 "HgN/A
4:20 AM52 °FPassing clouds.6 mph94%29.77 "HgN/A
3:50 AM50 °FPassing clouds.8 mph100%29.77 "HgN/A
3:20 AM50 °FPartly cloudy.6 mph100%29.77 "HgN/A
2:50 AM50 °FPassing clouds.3 mph100%29.80 "HgN/A
2:20 AM52 °FClear.7 mph94%29.80 "Hg10 mi
Weather by CustomWeather, © 2016

See weather overviewHow to use our weather pages